Simultaneous Nadir Overpasses (SNOs) Predictions

Prediction of SNOs between TERRA and METOP-C Satellite Orbit:

Table of predicted SNOs for the next 14.0 days since TLE Epoch: 5/8/2021
Index Date (TERRA) Time (TERRA) Lat,Lon (TERRA) SZA (TERRA ) Date (METOP-C) Time (METOP-C) Lat,Lon (METOP-C) SZA (METOP-C ) Distance(km) Time Diff (sec)
1 05/09/2021 15:24:15 81.28, -5.24 66.59 05/09/2021 15:23:02 81.28, -5.37 66.54 2.30 73
2 05/09/2021 16:13:41 -81.30, 162.67 113.39 05/09/2021 16:13:40 -81.30, 162.84 113.37 2.90 1
3 05/09/2021 17:03:05 81.34, -28.82 66.74 05/09/2021 17:04:19 81.31, -28.92 66.74 3.87 74
4 05/12/2021 10:58:26 81.29, 61.35 65.89 05/12/2021 10:57:22 81.29, 61.41 65.87 0.98 64
5 05/12/2021 11:47:52 -81.31,-130.71 114.08 05/12/2021 11:48:01 -81.30,-130.70 114.07 0.76 9
6 05/15/2021 06:32:38 81.30, 127.91 65.23 05/15/2021 06:31:44 81.29, 127.79 65.19 2.14 54
7 05/15/2021 07:22:05 -81.29, -64.51 114.79 05/15/2021 07:22:24 -81.29, -64.64 114.79 2.26 19
8 05/18/2021 02:06:50 81.30,-165.58 64.61 05/18/2021 02:06:05 81.29,-165.46 64.60 1.98 45
9 05/18/2021 02:56:17 -81.30, 2.04 115.41 05/18/2021 02:56:45 -81.30, 2.18 115.38 2.40 28
10 05/20/2021 21:41:03 81.28, -99.47 63.96 05/20/2021 21:40:28 81.29, -99.51 63.94 0.93 35



Historial Predications of SNOs between TERRA and METOP-C
